Regional Weather Roundup
Issued by NWS

Home | Current Version | Previous Version | Text Only | Print | Product List | Glossary Off
Versions: 1 2 3 4 5 6 7 8 9 10 11 12 13 14 15 16 17 18 19 20 21 22 23 24 25 26 27 28 29 30 31 32 33 34 35 36 37 38 39 40 41 42 43 44 45 46 47 48 49 50

193
ASUS43 KLMK 210110
RWRKY
KENTUCKY REGIONAL WEATHER ROUNDUP
NATIONAL WEATHER SERVICE LOUISVILLE KY
800 PM EST SAT JAN 20 2018

NOTE "FAIR" INDICATES FEW OR NO CLOUDS BELOW 12,000 FEET
WITH NO SIGNIFICANT WEATHER AND/OR OBSTRUCTIONS TO VISIBILITY.

KYZ001>023-026-027-061>063-070>075-210200-
WESTERN AND SOUTH CENTRAL KENTUCKY

CITY           SKY/WX    TMP DP  RH WIND       PRES   REMARKS
PADUCAH        CLOUDY    48  37  65 CALM      30.08R
HENDERSON      CLOUDY    43  35  73 SE6       30.09S
OWENSBORO      CLOUDY    42  35  76 SE7       30.11F
HOPKINSVILLE   CLOUDY    54  42  65 S7        30.11F
BOWLING GREEN  CLOUDY    53  43  68 S5        30.15S
GLASGOW        CLOUDY    49  38  66 S3        30.16S
$$

KYZ024-025-028>034-038-045-046-053-210200-
NORTH CENTRAL KENTUCKY

CITY           SKY/WX    TMP DP  RH WIND       PRES   REMARKS
LOUISVILLE/SDF DRIZZLE   49  42  77 SW8       30.13S
LOUISVILLE/LOU CLOUDY    48  44  86 MISG      30.14S
FORT KNOX      CLOUDY    45  41  86 S5        30.12S
$$

KYZ035>037-039>044-047>052-055>060-089>105-210200-
NORTHEAST KENTUCKY

CITY           SKY/WX    TMP DP  RH WIND       PRES   REMARKS
LEXINGTON      CLOUDY    48  44  86 SW10      30.15S
COVINGTON      CLOUDY    46  40  79 SW7       30.11R
FRANKFORT      CLOUDY    48  41  76 SW7       30.12F
$$

KYZ054-064>069-076>088-106>120-210200-
SOUTHEAST KENTUCKY

CITY           SKY/WX    TMP DP  RH WIND       PRES   REMARKS
JACKSON        CLOUDY    51  42  71 SW6       30.18R
LONDON         CLOUDY    50  36  58 SE3       30.18S
SOMERSET       CLOUDY    46  36  66 CALM      30.20S
MIDDLESBORO    CLOUDY    41  34  78 CALM      30.23R
MONTICELLO     CLOUDY    44  38  79 NW9       30.20R
$$





USA.gov is the U.S. government's official web portal to all federal, state and local government web resources and services.